C/2017 E5 ( Lemmon )

Japanese version
Home page
Updated on April 8, 2017

---------------------------------------------------------------------

* Profile

Discovery Date March 4, 2017
Magnitude 20.1 mag
Discoverer G. J. Leonard (Mount Lemmon)

* Orbital Elements

Epoch 2016 June 21.0 TT = JDT 2457560.5
T 2016 June 10.89088 TT                                 MPCW
q   1.7841907            (2000.0)            P               Q
z  +0.0024713      Peri.  306.80147     -0.34692968     -0.86108028
 +/-0.0000581      Node   206.19370     -0.32985556     -0.25899953
e   0.9955907      Incl.  122.63324     -0.87797216     +0.43756141
From 72 observations 2017 Feb. 9-Mar. 31, mean residual 0".5.

* Magnitudes Graph

        m1 = 12.0 + 5 log d + 10.0 log r

---------------------------------------------------------------------

The orbital elements are published on M.P.E.C. 2017-G05.
The magnitudes graphs are made with Comet for Windows.

---------------------------------------------------------------------

Copyright(C) Seiichi Yoshida (comet@aerith.net). All rights reserved.